STARLINK-11496 [DTC] (62267 NORAD) Tracking and Keplerian Element Data

This shows tracking and keplerian element data for the satellite.

Feedback or suggestion? Click here.




ElementValue
Catalog62267
NameSTARLINK-11496 [DTC]
Epoch Orbit958
Epoch Day30.23279714
Epoch Year2025
RAAN328.9994
Inclination42.9989
Eccentricity0.0001903
Argument of Perigee251.8525
Mean Anonmoly108.2138
Mean Motion15.77872994
Decay Rate0.00045825
L11 62267U 24237A 25030.23279714 .00045825 00000+0 26457-3 0 9996
L22 62267 42.9989 328.9994 0001903 251.8525 108.2138 15.77872994 9585



Live tracking and technical data element details for STARLINK-11496 [DTC] (NORAD 62267). STARLINK-11496 [DTC] can be tracked NOW for your location showing map with azimuth and elevation plus other details from your city location.







IsCatalogInMostPopularTable: catalog: 62267, numindb: 19
Update: records affected: 1



GetName: 62267 STARLINK-11496 [DTC]

Hit Count: updated at: Sat, 24 May 2025 16:49:12 GMT